FW1892 Weather Reports


Display with metric or nautical units.
time (UTC)temp
F
wind
direction
speed
MPH
gust
MPH
rain 1hr
in
rain 24hr
in
rain mn
in
humidity
%
barometer
mb
20260902024203 63 144 0.0 0.0 0.00 0.29 0.29 92 1017.7
20260902024008 62 104 0.0 0.0 0.00 0.37 0.37 96 1018.5
20260902023703 63 144 0.0 0.0 0.00 0.29 0.29 92 1017.7
20260902023504 62 131 0.0 0.0 0.00 0.37 0.37 96 1018.4
20260902023203 63 144 0.0 0.0 0.00 0.29 0.29 92 1017.6
20260902023003 62 131 0.0 0.0 0.00 0.37 0.37 96 1018.2
20260902022702 63 144 0.0 0.0 0.00 0.29 0.29 92 1017.7
20260902022458 62 131 0.0 0.0 0.00 0.37 0.37 95 1018.4
20260902022203 63 144 0.0 0.0 0.00 0.29 0.29 92 1017.6
20260902021953 62 132 0.0 0.0 0.00 0.37 0.37 95 1018.4
20260902021703 63 144 0.0 0.0 0.00 0.29 0.29 92 1017.6
20260902021448 62 134 0.0 0.0 0.00 0.37 0.37 95 1018.5
20260902021203 63 144 0.0 0.0 0.00 0.29 0.29 92 1017.8
20260902020944 62 133 0.0 0.0 0.00 0.37 0.37 95 1018.4
20260902020703 63 144 0.0 0.0 0.00 0.29 0.29 92 1017.8
20260902020440 62 138 0.0 0.0 0.00 0.37 0.37 95 1018.5
20260902020202 63 144 0.0 0.0 0.00 0.29 0.29 92 1017.8
20260902015935 62 122 0.0 0.0 0.00 0.37 0.37 95 1018.3
20260902015703 63 144 0.0 0.0 0.00 0.29 0.29 92 1017.7
20260902015431 62 123 0.0 0.0 0.00 0.37 0.37 95 1018.5
20260902015203 63 144 0.0 0.0 0.00 0.29 0.29 92 1017.7
20260902014932 62 137 0.0 0.0 0.00 0.37 0.37 95 1018.4
20260902014703 63 144 0.0 0.0 0.00 0.29 0.29 92 1017.8
20260902014429 62 103 0.0 0.0 0.00 0.37 0.37 95 1018.5
20260902014203 63 144 0.0 0.0 0.00 0.29 0.29 92 1017.7
20260902013927 62 127 0.0 0.0 0.00 0.37 0.37 95 1018.3
20260902013423 62 126 0.0 0.0 0.00 0.37 0.37 95 1018.2
20260902013203 63 144 0.0 0.0 0.00 0.29 0.29 91 1017.6
20260902012918 62 127 0.0 0.0 0.00 0.37 0.37 95 1018.2
20260902012703 63 144 0.0 0.0 0.00 0.29 0.29 91 1017.6
20260902012414 62 127 0.0 0.0 0.00 0.37 0.37 95 1018.4
20260902012203 63 144 0.0 0.0 0.00 0.29 0.29 91 1017.7
20260902011909 62 106 0.0 0.0 0.00 0.37 0.37 95 1018.4
20260902011703 63 144 0.0 0.0 0.00 0.29 0.29 91 1017.7
20260902011405 62 108 0.0 0.0 0.00 0.37 0.37 95 1018.4
20260902011203 63 144 0.0 0.0 0.00 0.29 0.29 91 1017.6
20260902010904 62 125 0.0 0.0 0.00 0.37 0.37 95 1018.2
20260902010703 63 144 0.0 0.0 0.00 0.29 0.29 91 1017.5
20260902010359 62 125 0.0 0.0 0.00 0.37 0.37 95 1018.3
20260902010202 63 144 0.0 0.0 0.00 0.29 0.29 91 1017.5
20260902005858 62 125 0.0 0.0 0.00 0.37 0.37 94 1018.2
20260902005703 63 144 0.0 0.0 0.00 0.29 0.29 91 1017.6
20260902005353 62 125 0.0 0.0 0.00 0.37 0.37 94 1018.3
20260902005203 63 144 0.0 0.0 0.00 0.29 0.29 91 1017.6
20260902004849 63 129 0.0 1.0 0.00 0.37 0.37 94 1018.3
20260902004703 63 144 0.0 0.0 0.00 0.29 0.29 91 1017.6
20260902004348 62 139 0.0 0.0 0.00 0.37 0.37 94 1018.3
20260902004203 63 144 0.0 0.0 0.00 0.29 0.29 91 1017.5
20260902003843 62 129 0.0 0.0 0.00 0.37 0.37 94 1018.2
20260902003703 63 144 0.0 0.0 0.00 0.29 0.29 90 1017.4
20260902003338 62 124 0.0 0.0 0.00 0.37 0.37 94 1017.9
20260902003203 63 144 0.0 0.0 0.00 0.29 0.29 90 1017.3
20260902002834 62 128 0.0 0.0 0.00 0.37 0.37 93 1018.2
20260902002703 63 144 0.0 0.0 0.00 0.29 0.29 90 1017.3
20260902002328 62 131 0.0 0.0 0.00 0.37 0.37 93 1018.0
20260902002203 63 144 0.0 0.0 0.00 0.29 0.29 90 1017.2
20260902001823 62 133 0.0 0.0 0.00 0.37 0.37 93 1018.0
20260902001703 63 144 0.0 0.0 0.00 0.29 0.29 90 1017.2
20260902001318 62 132 0.0 0.0 0.00 0.37 0.37 93 1017.9
20260902001203 63 144 0.0 0.0 0.00 0.29 0.29 90 1017.1
20260902000813 62 127 0.0 0.0 0.00 0.37 0.37 93 1017.8
20260902000703 63 144 0.0 0.0 0.00 0.29 0.29 90 1017.0
20260902000313 62 127 0.0 0.0 0.00 0.37 0.37 93 1017.7
20260902000204 63 144 0.0 0.0 0.00 0.29 0.29 90 1017.0
20260901235808 62 127 0.0 0.0 0.00 0.37 0.37 92 1017.7
20260901235703 63 144 0.0 0.0 0.00 0.29 0.29 90 1017.0
20260901235307 62 117 0.0 0.0 0.00 0.37 0.37 92 1017.6
20260901234802 62 134 0.0 0.0 0.00 0.37 0.37 92 1017.6
20260901234257 62 113 0.0 0.0 0.00 0.37 0.37 92 1017.5
20260901234203 63 144 0.0 0.0 0.01 0.29 0.29 90 1016.7
20260901233757 62 134 0.0 1.0 0.00 0.37 0.37 92 1017.6
20260901233703 63 144 0.0 0.0 0.01 0.29 0.29 89 1016.7
20260901233253 62 106 0.0 0.0 0.00 0.37 0.37 92 1017.7
20260901232748 62 121 0.0 1.0 0.00 0.37 0.37 92 1017.6
20260901232703 64 144 0.0 0.0 0.01 0.29 0.29 89 1017.0
20260901232238 63 128 0.0 2.0 0.00 0.37 0.37 92 1017.9
20260901232203 64 142 0.0 0.0 0.01 0.29 0.29 89 1017.2
20260901231734 63 106 0.0 0.0 0.00 0.37 0.37 91 1017.8
20260901231703 64 142 0.0 0.0 0.01 0.29 0.29 89 1017.2
20260901231230 63 106 0.0 0.0 0.00 0.37 0.37 91 1017.9
20260901231203 64 142 0.0 0.0 0.01 0.29 0.29 89 1017.2
20260901230726 63 125 0.0 0.0 0.00 0.37 0.37 91 1017.9
20260901230703 64 142 0.0 0.0 0.01 0.29 0.29 89 1017.1
20260901230225 63 135 0.0 1.0 0.00 0.37 0.37 90 1017.8
20260901230203 64 142 0.0 0.0 0.01 0.29 0.29 89 1017.1
20260901225720 63 144 0.0 2.0 0.00 0.37 0.37 91 1017.8
20260901225703 64 131 0.0 5.0 0.01 0.29 0.29 88 1017.1
20260901225214 63 135 4.0 4.0 0.00 0.37 0.37 92 1017.9
20260901225203 65 165 0.0 0.0 0.01 0.29 0.29 89 1017.0
20260901224711 64 133 1.0 2.0 0.07 0.37 0.37 92 1017.9
20260901224207 64 153 0.0 1.0 0.07 0.37 0.37 91 1017.7
20260901224202 65 151 0.0 0.0 0.00 0.28 0.28 89 1017.0
20260901223703 65 139 0.0 0.0 0.00 0.28 0.28 88 1017.0
20260901223204 66 163 0.0 1.0 0.00 0.28 0.28 88 1016.8
20260901223157 65 181 1.0 1.0 0.00 0.36 0.36 90 1017.6
20260901222653 65 123 1.0 2.0 0.00 0.36 0.36 89 1017.6
20260901222336 66 158 0.0 1.0 0.00 0.28 0.28 88 1017.1
20260901222149 65 159 0.0 1.0 0.00 0.36 0.36 88 1017.5
20260901221645 65 121 0.0 4.0 0.00 0.36 0.36 88 1017.4
20260901221351 66 132 2.0 9.0 0.00 0.28 0.28 88 1016.9
20260901221141 66 126 1.0 2.0 0.00 0.36 0.36 87 1017.3
20260901220639 66 105 1.0 2.0 0.00 0.36 0.36 88 1017.4
20260901220322 67 111 0.0 5.0 0.00 0.28 0.28 88 1016.8
20260901220139 66 104 2.0 2.0 0.00 0.36 0.36 87 1017.3
20260901215637 66 148 0.0 1.0 0.00 0.36 0.36 88 1017.1
20260901215350 67 172 0.0 0.0 0.00 0.28 0.28 88 1016.8
20260901215132 66 118 0.0 4.0 0.00 0.36 0.36 87 1016.9
20260901214630 66 154 0.0 0.0 0.00 0.36 0.36 87 1016.9
20260901214334 67 155 0.0 0.0 0.00 0.28 0.28 88 1016.7
20260901214125 67 125 0.0 1.0 0.00 0.36 0.36 87 1017.1
20260901213624 66 136 0.0 1.0 0.00 0.36 0.36 87 1017.1
20260901213339 67 156 0.0 0.0 0.00 0.28 0.28 88 1016.6
20260901213119 67 143 1.0 1.0 0.00 0.36 0.36 88 1016.9
20260901212620 67 176 0.0 1.0 0.00 0.36 0.36 87 1016.9
20260901212350 67 167 0.0 0.0 0.00 0.28 0.28 88 1016.6
20260901212116 67 113 0.0 1.0 0.00 0.36 0.36 87 1016.9
20260901211616 67 126 0.0 0.0 0.00 0.36 0.36 87 1016.9
20260901211340 67 168 0.0 0.0 0.00 0.28 0.28 88 1016.6
20260901211112 67 107 0.0 0.0 0.00 0.36 0.36 87 1017.1
20260901210608 67 114 1.0 3.0 0.00 0.36 0.36 87 1016.9
20260901210203 67 155 0.0 0.0 0.00 0.28 0.28 88 1016.2
20260901210104 67 140 0.0 1.0 0.00 0.36 0.36 87 1016.6
20260901205703 67 166 0.0 0.0 0.00 0.28 0.28 88 1016.1
20260901205559 67 166 2.0 3.0 0.00 0.36 0.36 87 1016.6
20260901205203 67 178 0.0 0.0 0.00 0.28 0.28 89 1016.0
20260901205059 67 138 1.0 2.0 0.00 0.36 0.36 88 1016.7
20260901204703 67 160 0.0 0.0 0.00 0.28 0.28 89 1016.0
20260901204555 67 140 0.0 1.0 0.00 0.36 0.36 88 1016.7
20260901204203 67 157 0.0 0.0 0.00 0.28 0.28 88 1016.1
20260901204051 67 153 2.0 2.0 0.00 0.36 0.36 87 1016.9
20260901203704 67 97 0.0 0.0 0.00 0.28 0.28 89 1016.0
20260901203551 67 148 0.0 0.0 0.00 0.36 0.36 87 1016.7
20260901203203 67 96 0.0 0.0 0.00 0.28 0.28 89 1016.0
20260901203046 67 80 0.0 1.0 0.00 0.36 0.36 86 1016.6
20260901202545 68 123 0.0 1.0 0.00 0.36 0.36 87 1016.6
20260901202203 68 146 0.0 0.0 0.00 0.28 0.28 89 1015.9
20260901202042 68 186 0.0 1.0 0.00 0.36 0.36 87 1016.5
20260901201703 67 139 0.0 0.0 0.00 0.28 0.28 89 1015.8
20260901201537 68 137 1.0 1.0 0.00 0.36 0.36 87 1016.5
20260901201203 67 182 0.0 0.0 0.00 0.28 0.28 89 1015.8
20260901201036 68 119 0.0 4.0 0.00 0.36 0.36 86 1016.3
20260901200536 68 145 1.0 2.0 0.00 0.36 0.36 87 1016.4
20260901200203 67 95 0.0 0.0 0.00 0.28 0.28 90 1015.8
20260901200031 68 144 1.0 3.0 0.00 0.36 0.36 87 1016.5
20260901195703 67 136 0.0 0.0 0.00 0.28 0.28 90 1015.9
20260901195529 68 129 0.0 0.0 0.00 0.36 0.36 87 1016.7
20260901195203 67 123 0.0 0.0 0.00 0.28 0.28 90 1015.9
20260901195029 68 80 0.0 2.0 0.00 0.36 0.36 87 1016.6
20260901194702 67 135 0.0 0.0 0.00 0.28 0.28 90 1015.9
20260901194529 68 136 0.0 3.0 0.00 0.36 0.36 88 1016.6
20260901194203 67 171 0.0 0.0 0.00 0.28 0.28 90 1015.9
20260901194024 67 123 1.0 2.0 0.00 0.36 0.36 88 1016.6
20260901193524 68 134 1.0 2.0 0.00 0.36 0.36 89 1016.5
20260901193203 67 173 0.0 0.0 0.00 0.28 0.28 91 1015.9
20260901193019 67 118 0.0 2.0 0.00 0.36 0.36 89 1016.6
20260901192702 67 118 0.0 2.0 0.00 0.28 0.28 91 1015.9
20260901192514 67 153 1.0 2.0 0.00 0.36 0.36 89 1016.8
20260901192203 67 128 0.0 2.0 0.00 0.28 0.28 91 1016.0
20260901192010 67 141 1.0 2.0 0.00 0.36 0.36 89 1016.6
20260901191703 67 112 1.0 6.0 0.00 0.28 0.28 91 1016.0
20260901191506 67 119 0.0 3.0 0.00 0.36 0.36 89 1016.8
20260901191001 67 143 2.0 4.0 0.00 0.36 0.36 88 1016.7
20260901190703 67 108 0.0 1.0 0.00 0.28 0.28 91 1016.1
20260901190457 67 109 0.0 1.0 0.00 0.36 0.36 89 1016.8
20260901190203 67 133 0.0 1.0 0.00 0.28 0.28 91 1016.1
20260901185954 67 90 2.0 3.0 0.00 0.36 0.36 88 1016.7
20260901185449 67 132 1.0 2.0 0.00 0.36 0.36 89 1016.7
20260901185203 67 148 0.0 0.0 0.00 0.28 0.28 91 1016.0
20260901184948 67 142 1.0 3.0 0.00 0.36 0.36 89 1016.8
20260901184703 67 89 0.0 0.0 0.00 0.28 0.28 91 1016.0
20260901184444 67 123 0.0 2.0 0.00 0.36 0.36 89 1016.8
20260901184203 67 115 0.0 0.0 0.00 0.28 0.28 91 1016.0
20260901183939 67 136 2.0 2.0 0.00 0.36 0.36 88 1016.6
20260901183438 67 107 0.0 2.0 0.00 0.36 0.36 89 1016.7
20260901183203 66 79 0.0 0.0 0.00 0.28 0.28 91 1016.1
20260901182935 67 179 0.0 1.0 0.00 0.36 0.36 89 1016.8
20260901182703 66 109 0.0 0.0 0.00 0.28 0.28 91 1016.1
20260901182431 66 98 0.0 1.0 0.00 0.36 0.36 89 1016.6
20260901182203 66 113 0.0 0.0 0.00 0.28 0.28 91 1016.1
20260901181925 66 132 0.0 2.0 0.00 0.36 0.36 89 1016.7
20260901181703 66 146 0.0 0.0 0.00 0.28 0.28 91 1016.0
20260901181420 66 122 0.0 1.0 0.00 0.36 0.36 88 1016.9
20260901181203 66 134 0.0 0.0 0.00 0.28 0.28 91 1016.1
20260901180918 66 126 1.0 2.0 0.00 0.36 0.36 88 1016.7
20260901180413 66 114 0.0 0.0 0.00 0.36 0.36 89 1016.8
20260901180203 65 126 0.0 0.0 0.00 0.28 0.28 91 1016.0
20260901175911 66 139 0.0 1.0 0.00 0.36 0.36 89 1016.6
20260901175703 65 126 0.0 0.0 0.00 0.28 0.28 91 1016.0
20260901175406 66 145 0.0 1.0 0.00 0.36 0.36 88 1016.7
20260901175203 65 128 0.0 0.0 0.00 0.28 0.28 91 1016.0
20260901174901 66 93 0.0 1.0 0.00 0.36 0.36 89 1016.6
20260901174357 65 128 2.0 3.0 0.00 0.36 0.36 89 1016.5
20260901173852 65 122 1.0 2.0 0.00 0.36 0.36 89 1016.5
20260901173347 65 49 0.0 0.0 0.00 0.36 0.36 89 1016.4
20260901173204 65 171 0.0 0.0 0.00 0.28 0.28 91 1015.7
20260901172844 66 120 1.0 4.0 0.00 0.36 0.36 88 1016.2
20260901172703 65 159 0.0 3.0 0.00 0.28 0.28 92 1015.4
20260901172343 66 102 1.0 2.0 0.00 0.36 0.36 88 1016.1
20260901172203 64 80 0.0 0.0 0.00 0.28 0.28 92 1015.4
20260901171841 65 139 0.0 1.0 0.00 0.36 0.36 89 1016.1
20260901171340 64 114 0.0 1.0 0.00 0.36 0.36 89 1016.1
20260901171203 64 76 0.0 0.0 0.00 0.28 0.28 92 1015.6
20260901170839 64 83 0.0 2.0 0.00 0.36 0.36 88 1016.1
20260901170703 64 113 0.0 0.0 0.00 0.28 0.28 92 1015.6
20260901170334 64 133 1.0 2.0 0.00 0.36 0.36 89 1016.3
20260901170203 64 123 0.0 0.0 0.00 0.28 0.28 92 1015.6
20260901165833 64 128 0.0 1.0 0.00 0.36 0.36 90 1016.3
20260901165703 64 101 0.0 0.0 0.00 0.28 0.28 92 1015.7
20260901165327 64 122 1.0 2.0 0.00 0.36 0.36 90 1016.7
20260901165203 64 92 0.0 0.0 0.00 0.28 0.28 92 1015.9
20260901164824 64 127 0.0 0.0 0.00 0.36 0.36 91 1016.5
20260901164703 63 57 0.0 0.0 0.00 0.28 0.28 92 1015.9
20260901164319 64 137 0.0 1.0 0.00 0.36 0.36 91 1016.6
20260901163814 63 117 0.0 2.0 0.00 0.36 0.36 91 1016.9
20260901163314 63 133 0.0 0.0 0.00 0.36 0.36 90 1016.7
20260901163203 63 11 0.0 0.0 0.00 0.28 0.28 92 1016.1
20260901162809 63 88 0.0 0.0 0.00 0.36 0.36 91 1016.8
20260901162703 63 108 0.0 0.0 0.00 0.28 0.28 92 1016.1
20260901162308 63 108 0.0 0.0 0.00 0.36 0.36 90 1016.9
20260901162204 63 96 0.0 0.0 0.00 0.28 0.28 92 1016.1
20260901161808 63 84 0.0 0.0 0.00 0.36 0.36 90 1016.9
20260901161703 63 96 0.0 0.0 0.00 0.28 0.28 92 1016.2
20260901161302 63 32 0.0 0.0 0.00 0.36 0.36 89 1017.2
20260901161203 63 96 0.0 0.0 0.00 0.28 0.28 92 1016.2
20260901160758 63 295 0.0 0.0 0.00 0.36 0.36 90 1017.1
20260901160703 63 345 0.0 0.0 0.00 0.28 0.28 92 1016.2
20260901160254 63 75 0.0 1.0 0.00 0.36 0.36 89 1017.1
20260901160203 63 345 0.0 0.0 0.00 0.28 0.28 92 1016.3
20260901155752 63 123 0.0 2.0 0.00 0.36 0.36 89 1017.1
20260901155703 63 322 0.0 0.0 0.00 0.28 0.28 92 1016.3
20260901155248 63 132 0.0 1.0 0.00 0.36 0.36 89 1016.9
20260901155203 63 36 0.0 0.0 0.00 0.28 0.28 92 1016.2
20260901154738 63 167 0.0 1.0 0.00 0.36 0.36 89 1016.9
20260901154703 63 36 0.0 0.0 0.00 0.28 0.28 92 1016.2
20260901154238 63 136 0.0 0.0 0.00 0.36 0.36 89 1016.7
20260901154203 62 36 0.0 0.0 0.00 0.28 0.28 92 1016.1
20260901153733 63 91 0.0 1.0 0.00 0.36 0.36 89 1016.8
20260901153703 62 36 0.0 0.0 0.00 0.28 0.28 92 1016.0
20260901153232 63 160 1.0 1.0 0.00 0.36 0.36 90 1016.7
20260901152732 63 153 1.0 1.0 0.00 0.36 0.36 90 1016.5
20260901152703 62 36 0.0 0.0 0.00 0.28 0.28 92 1015.8
20260901152231 62 137 0.0 0.0 0.00 0.36 0.36 90 1016.6
20260901152203 62 36 0.0 0.0 0.00 0.28 0.28 92 1015.8
20260901151727 62 29 0.0 0.0 0.00 0.36 0.36 91 1016.6
20260901151703 62 36 0.0 0.0 0.00 0.28 0.28 92 1015.9
20260901151226 62 29 0.0 1.0 0.00 0.36 0.36 90 1016.7
20260901151203 62 36 0.0 0.0 0.00 0.28 0.28 92 1015.9
20260901150721 62 111 0.0 0.0 0.00 0.36 0.36 90 1016.7
20260901150703 62 66 0.0 0.0 0.01 0.28 0.28 92 1016.0
20260901150219 62 119 0.0 0.0 0.00 0.36 0.36 91 1016.7
20260901150202 62 24 0.0 0.0 0.01 0.28 0.28 92 1016.0
20260901145717 62 137 1.0 1.0 0.00 0.36 0.36 91 1016.8
20260901145217 62 106 0.0 1.0 0.00 0.36 0.36 92 1016.8
20260901145203 62 43 0.0 0.0 0.02 0.28 0.28 92 1016.1
20260901144712 62 46 2.0 2.0 0.00 0.36 0.36 92 1016.8
20260901144704 62 24 0.0 0.0 0.03 0.28 0.28 92 1016.0
20260901144213 62 76 1.0 2.0 0.00 0.36 0.36 92 1016.7
20260901144204 62 355 0.0 0.0 0.04 0.28 0.28 93 1016.0
20260901143708 62 109 1.0 2.0 0.00 0.36 0.36 93 1016.7
20260901143204 62 151 0.0 1.0 0.00 0.36 0.36 94 1016.4
20260901142700 61 160 0.0 1.0 0.00 0.36 0.36 94 1016.5
20260901142204 61 5 0.0 0.0 0.07 0.28 0.28 92 1016.0
20260901142159 61 110 0.0 2.0 0.00 0.36 0.36 94 1016.6
20260901141703 61 5 0.0 0.0 0.08 0.28 0.28 92 1016.0
20260901141655 61 345 1.0 2.0 0.00 0.36 0.36 94 1016.7
20260901141203 61 329 0.0 0.0 0.09 0.28 0.28 92 1016.1
20260901141154 61 144 0.0 2.0 0.00 0.36 0.36 94 1016.8
20260901140703 61 348 0.0 0.0 0.09 0.27 0.27 92 1016.0
20260901140653 61 90 0.0 1.0 0.00 0.36 0.36 94 1016.5
20260901140203 61 348 0.0 0.0 0.10 0.27 0.27 92 1015.9
20260901140152 61 123 0.0 0.0 0.05 0.36 0.36 94 1016.7
20260901135703 61 348 0.0 0.0 0.10 0.26 0.26 92 1016.0
20260901135647 60 33 1.0 2.0 0.05 0.36 0.36 95 1016.7
20260901135203 61 348 0.0 0.0 0.11 0.26 0.26 92 1015.9
20260901135137 60 3 2.0 2.0 0.07 0.35 0.35 95 1016.7
20260901134703 61 301 0.0 0.0 0.11 0.25 0.25 92 1015.9
20260901134632 60 328 1.0 2.0 0.07 0.35 0.35 94 1016.5
20260901134203 61 12 0.0 0.0 0.11 0.24 0.24 92 1015.8
20260901134127 60 175 0.0 1.0 0.12 0.34 0.34 94 1016.6
20260901133703 61 68 0.0 0.0 0.12 0.24 0.24 91 1015.9
20260901133626 60 106 0.0 1.0 0.17 0.34 0.34 95 1016.6
20260901133203 61 108 0.0 0.0 0.12 0.23 0.23 91 1015.8
20260901133125 60 86 0.0 1.0 0.17 0.32 0.32 94 1016.6
20260901132703 61 114 0.0 0.0 0.12 0.22 0.22 91 1015.9
20260901132620 60 115 0.0 0.0 0.12 0.31 0.31 94 1016.6
20260901132204 61 114 0.0 0.0 0.12 0.21 0.21 91 1015.9
20260901132120 60 131 0.0 0.0 0.12 0.29 0.29 94 1016.7
20260901131703 61 114 0.0 0.0 0.12 0.20 0.20 91 1016.1
20260901131619 60 125 0.0 0.0 0.12 0.29 0.29 94 1016.8
20260901131203 61 22 0.0 0.0 0.12 0.19 0.19 91 1016.3
20260901131114 60 131 0.0 0.0 0.12 0.27 0.27 94 1017.1
20260901130703 62 18 0.0 0.0 0.12 0.18 0.18 91 1016.4
20260901130610 60 157 0.0 0.0 0.19 0.27 0.27 94 1017.2
20260901130203 62 17 0.0 0.0 0.13 0.17 0.17 91 1016.4
20260901130108 61 101 0.0 2.0 0.26 0.25 0.25 94 1017.4
20260901125703 62 355 0.0 0.0 0.13 0.16 0.16 91 1016.5
20260901125606 61 174 1.0 2.0 0.24 0.24 0.24 94 1017.4
20260901125203 62 88 0.0 0.0 0.13 0.15 0.15 91 1016.4
20260901125102 61 99 0.0 0.0 0.17 0.21 0.21 94 1017.2
20260901124703 62 88 0.0 0.0 0.13 0.14 0.14 91 1016.5
20260901124601 61 119 0.0 0.0 0.24 0.20 0.20 94 1017.4
20260901124203 62 97 0.0 0.0 0.12 0.13 0.13 91 1016.5
20260901124056 61 118 0.0 0.0 0.24 0.18 0.18 94 1017.4
20260901123703 62 38 0.0 0.0 0.12 0.12 0.12 90 1016.6
20260901123551 61 81 0.0 0.0 0.24 0.17 0.17 94 1017.6
20260901123203 62 340 0.0 3.0 0.11 0.11 0.11 90 1016.7
20260901123051 61 245 0.0 0.0 0.19 0.14 0.14 94 1017.5
20260901122703 63 33 0.0 0.0 0.10 0.10 0.10 90 1016.6
20260901122550 62 177 0.0 0.0 0.19 0.13 0.13 94 1017.5
20260901122203 63 94 0.0 1.0 0.09 0.09 0.09 90 1016.6
20260901122049 62 92 0.0 3.0 0.19 0.11 0.11 93 1017.5
20260901121703 63 323 0.0 0.0 0.08 0.08 0.08 90 1016.7
20260901121549 62 147 0.0 0.0 0.17 0.10 0.10 93 1017.4
20260901121045 62 182 0.0 0.0 0.17 0.08 0.08 93 1017.6
20260901120703 63 338 0.0 0.0 0.06 0.06 0.06 89 1016.7
20260901120544 62 147 0.0 0.0 0.24 0.07 0.07 93 1017.4
20260901120203 63 338 0.0 0.0 0.04 0.04 0.04 89 1016.6
20260901120040 62 155 0.0 0.0 0.19 0.05 0.05 92 1017.4
20260901115703 63 338 0.0 0.0 0.03 0.03 0.03 89 1016.5
20260901115535 62 133 0.0 0.0 0.12 0.03 0.03 92 1017.3
20260901115204 63 338 0.0 0.0 0.02 0.02 0.02 89 1016.4
20260901115032 62 313 0.0 0.0 0.05 0.02 0.02 91 1017.1
20260901114528 62 137 0.0 1.0 0.07 0.01 0.01 91 1017.2
20260901114203 63 338 0.0 0.0 0.01 0.01 0.01 88 1016.2
20260901114026 62 131 0.0 0.0 0.07 0.01 0.01 90 1016.7
20260901113703 63 338 0.0 0.0 0.00 0.00 0.00 88 1015.9
20260901113525 62 161 0.0 0.0 0.00 0.00 0.00 88 1016.9
20260901113203 63 338 0.0 0.0 0.00 0.00 0.00 88 1016.1
20260901113021 63 147 0.0 1.0 0.00 0.00 0.00 88 1016.8
20260901112703 63 338 0.0 0.0 0.00 0.00 0.00 88 1016.1
20260901112516 63 171 0.0 1.0 0.00 0.00 0.00 87 1016.7
20260901112203 63 338 0.0 0.0 0.00 0.00 0.00 88 1016.1
20260901112011 63 147 0.0 0.0 0.00 0.00 0.00 86 1016.8
20260901111703 63 338 0.0 0.0 0.00 0.00 0.00 88 1016.0
20260901111509 63 153 0.0 1.0 0.00 0.00 0.00 86 1016.9
20260901111204 63 338 0.0 0.0 0.00 0.00 0.00 88 1016.0
20260901111008 63 165 1.0 2.0 0.00 0.00 0.00 86 1016.8
20260901110703 62 358 0.0 0.0 0.00 0.00 0.00 88 1015.9
20260901110504 62 212 0.0 1.0 0.00 0.00 0.00 86 1016.5
20260901110203 62 120 0.0 0.0 0.00 0.00 0.00 88 1015.8
20260901105959 62 120 0.0 0.0 0.00 0.00 0.00 86 1016.4
20260901105703 62 128 0.0 0.0 0.00 0.00 0.00 88 1015.8
20260901105455 62 137 0.0 0.0 0.00 0.00 0.00 86 1016.5
20260901105204 62 128 0.0 0.0 0.00 0.00 0.00 88 1015.8
20260901104955 62 146 0.0 1.0 0.00 0.00 0.00 86 1016.6
20260901104703 63 141 0.0 0.0 0.00 0.00 0.00 88 1015.8
20260901104452 62 151 0.0 1.0 0.00 0.00 0.00 86 1016.8
20260901104203 63 293 0.0 0.0 0.00 0.00 0.00 88 1016.0
20260901103951 63 75 1.0 2.0 0.00 0.00 0.00 86 1016.6
20260901103446 63 148 0.0 1.0 0.00 0.00 0.00 86 1016.6
20260901103203 63 27 0.0 0.0 0.00 0.00 0.00 88 1015.7
20260901102941 62 130 0.0 0.0 0.00 0.00 0.00 87 1016.4
20260901102703 63 71 0.0 0.0 0.00 0.00 0.00 88 1015.5
20260901102436 63 122 0.0 0.0 0.00 0.00 0.00 87 1016.1
20260901102203 63 69 0.0 0.0 0.00 0.00 0.00 88 1015.5
20260901101931 63 134 0.0 0.0 0.00 0.00 0.00 87 1016.2
20260901101426 63 128 0.0 0.0 0.00 0.00 0.00 87 1016.4
20260901101203 63 64 0.0 0.0 0.00 0.00 0.00 88 1015.5
20260901100926 63 125 0.0 0.0 0.00 0.00 0.00 87 1016.2
20260901100421 63 118 0.0 0.0 0.00 0.00 0.00 87 1016.2
20260901100203 63 307 0.0 0.0 0.00 0.00 0.00 89 1015.3
20260901095920 63 128 0.0 0.0 0.00 0.00 0.00 87 1015.9
20260901095703 63 307 0.0 0.0 0.00 0.00 0.00 89 1015.1
20260901095419 63 112 0.0 0.0 0.00 0.00 0.00 87 1015.7
20260901095203 63 307 0.0 0.0 0.00 0.00 0.00 89 1015.1
20260901094917 63 96 0.0 0.0 0.00 0.00 0.00 88 1015.9
20260901094412 63 139 0.0 0.0 0.00 0.00 0.00 87 1015.7
20260901094203 63 307 0.0 0.0 0.00 0.00 0.00 89 1015.0
20260901093912 63 108 0.0 0.0 0.00 0.00 0.00 87 1015.9
20260901093703 63 307 0.0 0.0 0.00 0.00 0.00 89 1015.0
20260901093411 63 111 0.0 0.0 0.00 0.00 0.00 87 1015.7
20260901093203 63 307 0.0 0.0 0.00 0.00 0.00 89 1015.0
20260901092907 63 122 0.0 0.0 0.00 0.00 0.00 87 1015.8
20260901092703 63 307 0.0 0.0 0.00 0.00 0.00 89 1015.0
20260901092403 63 115 0.0 0.0 0.00 0.00 0.00 87 1015.8
20260901091858 63 117 0.0 0.0 0.00 0.00 0.00 87 1015.9
20260901091704 63 307 0.0 0.0 0.00 0.00 0.00 89 1015.1
20260901091358 63 125 0.0 0.0 0.00 0.00 0.00 87 1015.8
20260901091203 63 307 0.0 0.0 0.00 0.00 0.00 89 1015.1
20260901090853 63 119 0.0 0.0 0.00 0.00 0.00 88 1015.8
20260901090703 63 307 0.0 0.0 0.00 0.00 0.00 89 1015.1
20260901090348 63 116 0.0 0.0 0.00 0.00 0.00 88 1016.1
20260901090203 63 307 0.0 0.0 0.00 0.00 0.00 89 1015.1
20260901085844 63 104 0.0 0.0 0.00 0.00 0.00 88 1016.0
20260901085703 63 307 0.0 0.0 0.00 0.00 0.00 89 1015.1
20260901085339 63 92 0.0 0.0 0.00 0.00 0.00 88 1015.8
20260901085204 63 307 0.0 0.0 0.00 0.00 0.00 89 1015.0
20260901084836 63 133 0.0 0.0 0.00 0.00 0.00 88 1016.0
20260901084332 63 105 0.0 0.0 0.00 0.00 0.00 88 1015.7
20260901084203 63 307 0.0 0.0 0.00 0.00 0.00 89 1015.0
20260901083826 63 338 0.0 0.0 0.00 0.00 0.00 88 1015.9
20260901083704 63 307 0.0 0.0 0.00 0.00 0.00 89 1015.0
20260901083320 63 93 0.0 0.0 0.00 0.00 0.00 89 1015.8
20260901083203 63 307 0.0 0.0 0.00 0.00 0.00 89 1015.0
20260901082819 63 125 0.0 0.0 0.00 0.00 0.00 89 1015.8
20260901082703 63 307 0.0 0.0 0.00 0.00 0.00 89 1015.0
20260901082314 63 120 0.0 0.0 0.00 0.00 0.00 89 1015.8
20260901082203 63 307 0.0 0.0 0.00 0.00 0.00 89 1015.0
20260901081809 63 118 0.0 0.0 0.00 0.00 0.00 89 1015.9
20260901081703 63 307 0.0 0.0 0.00 0.00 0.00 89 1015.1
20260901081309 63 96 0.0 0.0 0.00 0.00 0.00 89 1015.7
20260901081203 63 256 0.0 0.0 0.00 0.00 0.00 89 1015.0
20260901080804 63 108 0.0 0.0 0.00 0.00 0.00 89 1015.9
20260901080703 63 256 0.0 0.0 0.00 0.00 0.00 89 1015.1
20260901080304 63 108 0.0 0.0 0.00 0.00 0.00 89 1016.0
20260901080203 63 256 0.0 0.0 0.00 0.00 0.00 89 1015.1
20260901075759 63 108 0.0 0.0 0.00 0.00 0.00 89 1015.8
20260901075703 63 256 0.0 0.0 0.00 0.00 0.00 89 1015.1
20260901075254 63 108 0.0 0.0 0.00 0.00 0.00 90 1016.0
20260901075204 63 256 0.0 0.0 0.00 0.00 0.00 89 1015.1
20260901074753 63 108 0.0 0.0 0.00 0.00 0.00 90 1015.9
20260901074703 63 256 0.0 0.0 0.00 0.00 0.00 89 1015.1
20260901074248 63 116 0.0 0.0 0.00 0.00 0.00 90 1016.0
20260901074203 63 256 0.0 0.0 0.00 0.00 0.00 89 1015.2
20260901073744 63 123 0.0 0.0 0.00 0.00 0.00 90 1015.9
20260901073703 63 256 0.0 0.0 0.00 0.00 0.00 89 1015.4
20260901073240 63 139 0.0 0.0 0.00 0.00 0.00 90 1016.2
20260901073203 63 256 0.0 0.0 0.00 0.00 0.00 89 1015.5
20260901072735 63 131 0.0 0.0 0.00 0.00 0.00 90 1016.4
20260901072231 63 131 0.0 0.0 0.00 0.00 0.00 90 1016.3
20260901072203 63 256 0.0 0.0 0.00 0.00 0.00 89 1015.5
20260901071730 63 132 0.0 0.0 0.00 0.00 0.00 90 1016.3
20260901071703 63 256 0.0 0.0 0.00 0.00 0.00 89 1015.5
20260901071230 63 134 0.0 0.0 0.00 0.00 0.00 90 1016.2
20260901070729 63 121 0.0 0.0 0.00 0.00 0.00 90 1016.3
20260901070703 63 256 0.0 0.0 0.00 0.00 0.00 89 1015.5
20260901070225 63 124 0.0 0.0 0.00 0.00 0.00 90 1016.3
20260901070204 63 256 0.0 0.0 0.00 0.00 0.00 89 1015.5
20260901065724 63 124 0.0 0.0 0.00 0.00 0.00 90 1016.3
20260901065703 63 256 0.0 0.0 0.00 0.00 0.00 89 1015.5
20260901065219 63 124 0.0 0.0 0.00 0.00 0.00 90 1016.5
20260901065203 63 256 0.0 0.0 0.00 0.00 0.00 88 1015.6
20260901064716 63 136 0.0 0.0 0.00 0.00 0.00 90 1016.5
20260901064704 63 256 0.0 0.0 0.00 0.00 0.00 88 1015.7
20260901064212 63 139 0.0 0.0 0.00 0.00 0.00 90 1016.4
20260901064204 63 256 0.0 0.0 0.00 0.00 0.00 88 1015.7
20260901063709 63 121 0.0 0.0 0.00 0.00 0.00 90 1016.5
20260901063703 63 256 0.0 0.0 0.00 0.00 0.00 88 1015.6
20260901063204 63 132 0.0 0.0 0.00 0.00 0.00 90 1016.6
20260901062704 63 256 0.0 0.0 0.00 0.00 0.00 88 1015.8
20260901062700 63 133 0.0 0.0 0.00 0.00 0.00 90 1016.8
20260901062203 63 256 0.0 0.0 0.00 0.00 0.00 88 1015.7
20260901062155 63 133 0.0 0.0 0.00 0.00 0.00 90 1016.5
20260901061703 63 256 0.0 0.0 0.00 0.00 0.00 88 1015.7
20260901061652 63 133 0.0 0.0 0.00 0.00 0.00 91 1016.6
20260901061204 63 256 0.0 0.0 0.00 0.00 0.00 88 1015.8
20260901061151 63 133 0.0 0.0 0.00 0.00 0.00 91 1016.6
20260901060704 63 256 0.0 0.0 0.00 0.00 0.00 88 1015.8
20260901060646 62 133 0.0 0.0 0.00 0.00 0.00 91 1016.4
20260901060203 63 256 0.0 0.0 0.00 0.00 0.00 87 1015.8
20260901060142 62 137 0.0 0.0 0.00 0.00 0.00 91 1016.6
20260901055703 63 256 0.0 0.0 0.00 0.00 0.00 87 1015.7
20260901055637 62 127 0.0 0.0 0.00 0.00 0.00 91 1016.5
20260901055203 63 256 0.0 0.0 0.00 0.00 0.00 87 1015.7
20260901055134 62 127 0.0 0.0 0.00 0.00 0.00 91 1016.5
20260901054703 63 256 0.0 0.0 0.00 0.00 0.00 87 1015.8
20260901054630 62 127 0.0 0.0 0.00 0.00 0.00 91 1016.6
20260901054203 63 256 0.0 0.0 0.00 0.00 0.00 87 1015.9
20260901054126 62 127 0.0 0.0 0.00 0.00 0.00 91 1016.7
20260901053703 63 256 0.0 0.0 0.00 0.00 0.00 87 1015.9
20260901053622 62 127 0.0 0.0 0.00 0.00 0.00 90 1016.6
20260901053203 63 256 0.0 0.0 0.00 0.00 0.00 87 1015.8
20260901053118 62 129 0.0 0.0 0.00 0.00 0.00 91 1016.6
20260901052618 62 129 0.0 0.0 0.00 0.00 0.00 90 1016.8
20260901052203 63 256 0.0 0.0 0.00 0.00 0.00 86 1015.9
20260901052113 62 129 0.0 0.0 0.00 0.00 0.00 90 1016.7
20260901051703 63 256 0.0 0.0 0.00 0.00 0.00 86 1016.0
20260901051613 62 129 0.0 0.0 0.00 0.00 0.00 90 1016.7
20260901051203 63 256 0.0 0.0 0.00 0.00 0.00 86 1016.0
20260901051111 62 131 0.0 0.0 0.00 0.00 0.00 90 1016.7
20260901050607 62 133 0.0 0.0 0.00 0.00 0.00 90 1016.6
20260901050203 64 256 0.0 0.0 0.00 0.00 0.00 86 1015.9
20260901045703 64 256 0.0 0.0 0.00 0.00 0.00 86 1015.8
20260901045558 62 123 0.0 0.0 0.00 0.00 0.00 90 1016.6
20260901045203 64 256 0.0 0.0 0.00 0.00 0.00 85 1015.7
20260901045057 62 154 0.0 0.0 0.00 0.00 0.00 90 1016.7
20260901044703 64 256 0.0 0.0 0.00 0.00 0.00 85 1015.8
20260901044554 62 126 0.0 0.0 0.00 0.00 0.00 90 1016.6
20260901044203 64 256 0.0 0.0 0.00 0.00 0.00 85 1015.7
20260901044049 63 127 0.0 0.0 0.00 0.00 0.00 89 1016.4
20260901043703 64 256 0.0 0.0 0.00 0.00 0.00 85 1015.7
20260901043545 63 127 0.0 0.0 0.00 0.00 0.00 89 1016.5
20260901043040 63 135 0.0 0.0 0.00 0.00 0.00 89 1016.6
20260901042703 64 256 0.0 0.0 0.00 0.00 0.00 85 1015.8
20260901042539 63 130 0.0 0.0 0.00 0.00 0.00 88 1016.6
20260901042203 64 256 0.0 0.0 0.00 0.00 0.00 84 1015.7
20260901042035 63 133 0.0 0.0 0.00 0.00 0.00 88 1016.5
20260901041703 64 256 0.0 0.0 0.00 0.00 0.00 84 1015.7
20260901041530 63 147 0.0 0.0 0.00 0.00 0.00 88 1016.7
20260901041203 65 256 0.0 0.0 0.00 0.00 0.00 84 1015.7
20260901041025 64 130 0.0 0.0 0.00 0.00 0.00 87 1016.4
20260901040703 65 256 0.0 0.0 0.00 0.00 0.00 84 1015.7
20260901040519 64 132 0.0 0.0 0.00 0.00 0.00 87 1016.5
20260901040019 64 130 0.0 0.0 0.00 0.00 0.00 87 1016.5
20260901035703 65 256 0.0 0.0 0.00 0.00 0.00 84 1015.8
20260901035517 64 136 0.0 0.0 0.00 0.00 0.00 86 1016.6
20260901035203 65 256 0.0 0.0 0.00 0.00 0.00 84 1015.8
20260901035016 64 138 0.0 0.0 0.00 0.00 0.00 86 1016.5
20260901034703 65 256 0.0 0.0 0.00 0.00 0.00 83 1015.8
20260901034515 64 151 0.0 0.0 0.00 0.00 0.00 87 1016.6
20260901034203 65 256 0.0 0.0 0.00 0.00 0.00 83 1015.7
20260901034010 64 118 0.0 0.0 0.00 0.00 0.00 87 1016.4
20260901033703 65 257 0.0 0.0 0.00 0.00 0.00 83 1015.7
20260901033510 64 116 0.0 0.0 0.00 0.00 0.00 87 1016.6
20260901033203 65 261 0.0 0.0 0.00 0.00 0.00 83 1015.7
20260901033010 64 133 0.0 0.0 0.00 0.00 0.00 86 1016.5
20260901032503 64 156 0.0 0.0 0.00 0.00 0.00 86 1016.5
20260901031958 64 143 0.0 0.0 0.00 0.00 0.00 86 1016.5
20260901031703 66 261 0.0 0.0 0.00 0.00 0.00 82 1015.8
20260901031454 64 131 0.0 0.0 0.00 0.00 0.00 86 1016.8
20260901031203 66 261 0.0 0.0 0.00 0.00 0.00 82 1015.9
20260901030953 64 156 0.0 0.0 0.00 0.00 0.00 86 1016.6
20260901030703 66 261 0.0 0.0 0.00 0.00 0.00 81 1015.9
20260901030449 64 133 0.0 0.0 0.00 0.00 0.00 86 1016.6
20260901025948 64 133 0.0 0.0 0.00 0.00 0.00 85 1016.8
20260901025703 66 261 0.0 0.0 0.00 0.00 0.00 81 1016.0
20260901025443 65 133 0.0 0.0 0.00 0.00 0.00 85 1016.9
20260901025203 66 261 0.0 0.0 0.00 0.00 0.00 81 1015.9
20260901024942 65 137 0.0 0.0 0.00 0.00 0.00 85 1016.8
20260901024703 66 261 0.0 0.0 0.00 0.00 0.00 80 1015.8
20260901024438 65 141 0.0 0.0 0.00 0.00 0.00 85 1016.7